Home > Weather > Ansbach > Past weeks

Flag for Germany Past Weather in Ansbach, Bavaria, Germany — Yesterday and Last 2 Weeks

Now
63 °F

Partly cloudy.


Feels Like: 63 °F
Forecast: 58 / 72 °F
Wind: 5 mph from Southwest

Location: Ansbach / Katterbach

Current Time: Jul 30, 2016 at 5:32:41 AM

Latest Report: Jul 30, 2016 at 4:58 AM


Visibility: N/A

Pressure: 29.97 "Hg

Humidity: 88%

Dew Point: 59 °F

Location of AnsbachLocation

Past Weather in Ansbach — Graph

°F

Ansbach Temperature Yesterday

Maximum temperature yesterday: 76 °F (at 6:58 PM)
Minimum temperature yesterday: 61 °F (at 6:00 AM)
Average temperature yesterday: 68 °F

High & Low Weather Summary for the Past Weeks

 TemperatureHumidityPressure
High85 °F (Jul 20, 3:58 PM)100% (Jul 15, 4:58 AM)30.37 "Hg (Jul 15, 4:58 AM)
Low46 °F (Jul 15, 4:58 AM)36% (Jul 20, 3:58 PM)29.91 "Hg (Jul 21, 4:58 AM)
Average68 °F74%30.11 "Hg
* Reported Jul 15 3:58 AM — Jul 30 3:58 AM, Ansbach, Weather by CustomWeather, © 2016

Note: Actual official high and low records may vary slightly from our data, if they occured in-between our weather recording intervals... More about our weather records

Advertising

Ansbach Weather History for the Previous 24 Hours

Scroll right to see more
 ConditionsComfort  
Time TempWeatherWind HumidityBarometerVisibility
3:58 AM
Sat, Jul 30
64 °FPassing clouds.5 mph84%29.98 "HgN/A
2:58 AM64 °FOvercast.3 mph83%29.98 "HgN/A
1:58 AM64 °FOvercast.3 mph83%29.98 "HgN/A
12:58 AM65 °FOvercast.5 mph79%30.00 "HgN/A
11:58 PM
Fri, Jul 29
64 °FPassing clouds.5 mph83%29.99 "HgN/A
10:58 PM66 °FClear.3 mph74%29.99 "HgN/A
9:58 PM68 °FPartly sunny.6 mph71%29.98 "HgN/A
8:58 PM72 °FScattered clouds.6 mph65%29.97 "HgN/A
7:58 PM72 °FPassing clouds.6 mph59%29.96 "HgN/A
6:58 PM76 °FPartly sunny.6 mph53%29.95 "HgN/A
5:58 PM75 °FPartly sunny.13 mph56%29.96 "HgN/A
4:58 PM75 °FBroken clouds.10 mph57%29.97 "HgN/A
3:58 PM74 °FBroken clouds.8 mph58%29.98 "HgN/A
2:58 PM73 °FPartly sunny.7 mph59%29.99 "HgN/A
1:58 PM74 °FScattered clouds.7 mph60%30.00 "HgN/A
12:58 PM69 °FMostly cloudy.8 mph67%30.02 "HgN/A
11:58 AM69 °FBroken clouds.12 mph71%30.02 "HgN/A
10:58 AM68 °FPartly sunny.13 mph71%30.02 "HgN/A
10:01 AM66 °FPartly sunny.12 mph78%30.04 "HgN/A
9:58 AM67 °FBroken clouds.12 mph75%30.03 "HgN/A
8:58 AM63 °FMostly cloudy.9 mph88%30.02 "HgN/A
7:58 AM63 °FMore clouds than sun.10 mph93%30.02 "HgN/A
7:03 AM63 °FCloudy.6 mph94%30.02 "HgN/A
6:59 AM61 °FMostly cloudy.6 mph100%30.01 "HgN/A
6:00 AM61 °FOvercast.7 mph100%30.02 "HgN/A
5:58 AM62 °FMostly cloudy.9 mph98%30.01 "HgN/A
Weather by CustomWeather, © 2016

See weather overviewHow to use our weather pages